Regional Weather Roundup
Issued by NWS Binghamton, NY

Home | Current Version | Previous Version | Text Only | Print | Product List | Glossary On
Versions: 1 2 3 4 5 6 7 8 9 10 11 12 13 14 15 16 17 18 19 20 21 22 23 24 25 26 27 28
000
ASUS41 KBGM 251310
RWRBGM

REGIONAL WEATHER ROUNDUP
NATIONAL WEATHER SERVICE BINGHAMTON NY
900 AM EDT SAT MAR 25 2017

Note: "fair" indicates few or no clouds below 12,000 feet with no
significant weather and/or obstructions to visibility.

* = Station(s) that does not report precipitation, such as rain,
snow, etc, also no thunder or fog.

NYZ009-015>018-022>025-036-037-044>046-055>057-062-251400
...Central New York...

CITY           SKY/WX    TMP DP  RH WIND       PRES   REMARKS
Binghamton     FOG       37  37 100 NW3       30.12F VSB 1/8
Cortland       CLOUDY    36  36 100 E3        30.15S FOG
Dansville      CLOUDY    39  36  89 NW6       30.19R WCI  35
Elmira         CLOUDY    40  36  86 E7        30.16S
Seneca Falls   DRIZZLE   36  36 100 N5        30.22R WCI  32
Ithaca         FOG       35  34  96 NW7       30.17R VSB 1/16WCI  29
Hamilton       CLOUDY    36  34  93 NW5       30.18R VSB 1   WCI  32
Monticello     CLOUDY    39  37  93 CALM      30.14S
Norwich        CLOUDY   N/A N/A N/A N5        30.17S FOG
Penn Yan       CLOUDY    35  32  88 VRB5      30.19R WCI  31
Rome           LGT RAIN  33  33 100 NW5       30.21R WCI  29
Sidney         FOG       36  36 100 W3        30.16R VSB 1/4
Syracuse       LGT RAIN  34  33  96 NW5       30.20R WCI  30
$$

PAZ038>040-043-044-047-048-072-251400
...Northeast Pennsylvania...

CITY           SKY/WX    TMP DP  RH WIND       PRES   REMARKS
Hazleton       CLOUDY    55  46  71 CALM      30.17R
Scranton       CLOUDY    43  38  82 CALM      30.15R
$$
&&
KEY
WCI = Wind Chill Index
VSB = Visibility
HX  = Heat Index
$$




USA.gov is the U.S. government's official web portal to all federal, state and local government web resources and services.